Погода в Рубцовске

Погода в Рубцовске : погода сейчас, прогноз погоды и архив. Всё, что Вы хотите узнать о погоде в Рубцовске!

Хотите узнать прогноз погоды в Рубцовске? Тогда Вам сюда: Погода в Рубцовске

Поиск расширенной информации на нашем сайте:

Другие новости

Новости СМИ2

Главная страница сайта

Новости сайта

03.07.2017

Напоминаем, что на нашем специализированном сайте Метеоцентр.Азия вы можете получить высокодетализированные автоматические прогнозы погоды по пунктам России, СНГ и мира в авиационном формате (включающие направление и скорость ветра, видимость, явления погоды, количество и форму облачности, нижнюю и верхнюю границу облачности).

Рекомендуем: нужен офис? купить офис в раойне 1-я Брестская улица интересные предложения

Погода в Рубцовске - сегодня

Время (UTC), дата Ветер
(°,м/с) 
Видим.   Явления Облачность Т
(°С)
Тd
(°С)
f(%) Тe
(°С)
Pmin
(гПа)
dP
(гПа)
Po
(мм)
O2
(г/м3)
Тmin Tmax R s Состояние
почвы
06 14.08.18 010 (С) 20000 м    8/8 600 м 
[Cu Sc]
+20 +10.6 55 +22  1020  -0.3  746  278           
09 14.08.18 250 (З) 20000 м    6/6 600 м 
[Cu Sc]
+22.7 +8.4 40 +23  1019.2  -0.6  745  276           
12 14.08.18 070 (В) 20000 м    3/3 600 м 
[Cu Sc]
+21.5 +9.6 47 +22  1019  -0.3  745  277    +23.2       
15 14.08.18 070 (В) 20000 м    ясно 
+15.7 +10 69 +17  1019.6  0.1  745  282           
18 14.08.18 010 (С) 20000 м    ясно 
+11 +8.6 85 +11  1019.7  -0.4  745  287           
21 14.08.18 010 (С) 20000 м    ясно 
+9.3 +7.9 91 +9  1019.3  -0.5  745  289           
00 15.08.18 040 (СВ) 20000 м    ясно 
+9.7 +8.1 90 +10  1019.2  745  288  +8.6        сухая 
03 15.08.18 040 (СВ) 20000 м    ясно 
+15.4 +10.1 71 +17  1018.5  -0.2  744  282           
06 15.08.18 090 (В) 20000 м    ясно 
+22.4 +9.4 44 +23  1016.7  -1.2  744  275           
09 15.08.18 200 (Ю) 20000 м    ясно 
+25.7 +8.2 33 +26  1014.7  -1.7  742  272           
12 15.08.18 150 (ЮВ) 20000 м    ясно 
+26.1 +5.9 27 +26  1013.7  -0.9  742  272    +27       
15 15.08.18 020 (С) 20000 м    ясно 
+16.9 +10.3 65 +20  1014.3  -0.2  741  279           
18 15.08.18 020 (С) 20000 м    ясно 
+12.9 +10.8 87 +15  1014  -0.6  741  283           
21 15.08.18 020 (С) 20000 м    ясно 
+10.8 +9.5 92 +12  1013.5  -0.7  740  285           
00 16.08.18 030 (СВ) 10 км    ясно 
+9.8 +9.2 96 +10  1013.4  -0.2  740  286  +9.4        сухая 
03 16.08.18 070 (В) 20000 м    ясно 
+20 +12.1 60 +24  1012  -0.5  740  275           
06 16.08.18 150 (ЮВ) 20000 м    3/0 верхняя 
[Ci fib]
+28.5 +7.4 26 +29  1010.1  -1.1  739  268           
09 16.08.18 160 (Ю) 20000 м    10/0 верхняя 
[Ci]
+30.6 +2.4 17 +31  1008.4  -1.6  738  267           
12 16.08.18 110 (В) 20000 м    10/6 1000 м кучево-дожд., средняя, верхняя 
[Cb cap|Ac trans|Ci sp]
+28.9 +8.8 28 +29  1007.1  -1.3  737  267    +31.1       
15 16.08.18 050 (СВ) 20000 м    10/5 1000 м кучево-дожд., средняя, верхняя 
[Cb cap|Ac trans|Ci sp]
+21.5 +11.4 53 +25  1006.7  -1  736  273           
18 16.08.18 010 (С) 20000 м    8/4 1000 м верхняя 
[Sc|Ci sp]
+17.3 +13.1 76 +24  1005.8  -1.2  735  276           
21 16.08.18 030 (СВ) 20000 м  зарница  8/5 1000 м кучево-дожд., средняя 
[Cb cap|Ac trans]
+18 +14 77 +27  1004.1  -1.6  734  275           
00 17.08.18 070 (В) 20000 м  в посл. час гроза{ливн. осадки}  8/8 600 м кучево-дожд. 
[Cb cap]
+16.7 +12.7 77 +22  1003.8  -0.5  734  276  +16.3    0.4    влажная 
03 17.08.18 150 (ЮВ) 20000 м    3/0 средняя, верхняя 
[Ac cast|Ci sp]
+26.5 +10.2 36 +28  1002.7  -0.1  734  268           
06 17.08.18 180 (Ю) 20000 м    3/0 верхняя 
[Ci sp]
+28.1 +9.1 30 +29  1003.8  1.1  734  267           
Время (UTC), дата Ветер
(°,м/с) 
Видим.   Явления Облачность Т
(°С)
Тd
(°С)
f(%) Тe
(°С)
Pmin
(гПа)
dP
(гПа)
Po
(мм)
O2
(г/м3)
Тmin Tmax R s Состояние
почвы

Для получения пояснительной информации подведите курсор к названию столбца.

ПОГОДА в Рубцовске - архив

Всё, что Вы хотите узнать о погоде в Рубцовске - удобно и подробно!

Выберите нужную дату (начиная с 1 января 2015* года) и нажмите кнопку "Найти".
Будут отображены архивные сводки погоды по пункту Рубцовск, начиная с указанной даты.


Отображать данные в формате CSV (для использования в таблицах Excel)


Внимание! Наш архив погоды предназначен исключительно для личного некоммерческого использования в познавательных целях. Если Вам необходимы официальные справки о состоянии погоды (для производственных, юридических, коммерческих и т.п. целей), обращайтесь в органы Росгидромета.

*Примечание: данная дата относится к архиву по метеостанциям СССР (Россия, СНГ, Балтия).
Архив по метеостанциям Зарубежной Европы и Азии (кроме Китая) хранится 10 дней, по другим регионам земного шара (Китай, Африка, Америка, Австралия, Океания) - 1 день.

Рубцовск - район местоположения метеостанции


Название, широта, долгота, высота метеостанции:
Рубцовск 51.5°ш. 81.2°д. 219 м над ур. моря [Российская Федерация]

Дополнительная информация

В oтличие oт бoльшинства пoгoдных сайтoв мы публикуем пoдрoбную метеoинфoрмацию в детальнoм прoфессиoнальнoм фoрмате.

Характеристики температуры и влажнoсти вoздуха измеряются на высoте 2 м в тени вдали oт зданий и деревьев.
Скoрoсть ветра измеряется на высoте 10 м (на урoвне рoста челoвека скoрoсть ветра ниже в 1.5-2 раза). Если метеoстанция нахoдится в гoрoде или в лесу, тo скoрoсть ветра занижена на 2-4 м/с пo сравнению с oткрытым местoм. Скoрoсть ветра над акватoриями крупных рек и oзёр, а также на вершинах хoлмoв на 2-5 м/с выше, чем в oбычных услoвиях.
Атмoсфернoе давление в разных тoчках местнoсти мoжет значительнo oтличаться oт давления на метеoстанции, в зависимoсти oт услoвий рельефа (при пoдъёме на 10 м давление пoнижается примернo на 1 мм рт.ст.).